[[{"header":{"parameterUnit":"m.s-1","parameterCategory":1,"la1":30.2991,"la2":30.254,"lo1":-89.0895,"lo2":-89.0444,"dy":0.0017,"dx":0.0017,"nx":28,"ny":28,"refTime":"2024-12-04T09:00:00:Z","depth":0,"parameterNumber":2,"parameterNumberName":"U-component_of_WINDS"},"data":[0,0,0,0,0,0,0,0,0,0,0,0,0,0,0,0,0,0,0,0,0,0,0,0,0,0,0,0,0,0,0,0,0,0,0,0,0,0,0,0,0,0,0,0,0,0,0,0,0,0,0,0,0,0,0,0,0,0,-3.6646,-3.6646,0,-3.6685,-3.6685,-3.6686,-3.6567,-3.6563,-3.656,-3.6556,-3.6595,-3.6599,-3.6603,0,0,0,0,0,0,0,0,0,0,0,0,0,-3.6466,-3.647,-3.6646,-3.6646,-3.6647,-3.6685,-3.6685,-3.6686,-3.6567,-3.6563,-3.6559,-3.6555,-3.6593,-3.6599,-3.6604,0,0,0,0,0,0,0,0,0,0,0,0,0,-3.6529,-3.6472,-3.6646,-3.6592,-3.6588,-3.6685,-3.6685,-3.6686,-3.6568,-3.6563,-3.6558,-3.6552,-3.6592,-3.6598,-3.6605,-3.6754,0,0,-3.6625,-3.6628,0,0,0,0,0,0,0,0,-3.6525,-3.6535,-3.66,-3.6596,-3.6591,-3.6615,-3.6636,-3.6709,-3.657,-3.6576,-3.6556,-3.655,-3.6606,-3.6611,-3.663,-3.6756,-3.6758,-3.6625,-3.6629,-3.6632,-3.6634,0,0,0,0,0,0,0,-3.6521,-3.6533,-3.6661,-3.6601,-3.6596,-3.6566,-3.6568,-3.6649,-3.6621,-3.6575,-3.6566,-3.6573,-3.6603,-3.6624,-3.663,-3.6758,-3.6625,-3.6631,-3.6635,-3.6638,-3.7007,-3.7012,0,0,0,0,0,0,-3.6524,-3.653,-3.666,-3.6662,-3.6544,-3.6573,-3.6576,-3.6613,-3.662,-3.6615,-3.6577,-3.6567,-3.6616,-3.6623,-3.6631,-3.6805,-3.6632,-3.6638,-3.6642,-3.7001,-3.7008,-3.7014,0,0,0,0,0,0,-3.6521,-3.6537,-3.6658,-3.6594,-3.6607,-3.6582,-3.6624,-3.6617,-3.6638,-3.6621,-3.6616,-3.6605,-3.6612,-3.6622,-3.6724,-3.6805,-3.6641,-3.6647,-3.6994,-3.7003,-3.7011,-3.7156,0,0,0,0,0,0,-3.6516,-3.6536,-3.6593,-3.6596,-3.6611,-3.6752,-3.6629,-3.6621,-3.665,-3.6637,-3.6646,-3.6642,-3.6608,-3.6715,-3.6731,-3.6811,-3.6652,-3.6987,-3.6998,-3.7008,-3.7144,-3.7169,-3.719,0,0,0,0,0,-3.651,-3.6633,-3.6597,-3.6613,-3.6682,-3.6757,-3.6765,-3.6724,-3.6657,-3.6714,-3.6703,-3.6641,-3.6794,-3.6726,-3.6743,-3.6827,-3.6981,-3.6995,-3.7007,-3.7134,-3.7164,-3.719,0,0,0,0,0,0,-3.664,-3.6632,-3.6592,-3.672,-3.674,-3.6736,-3.6807,-3.6758,-3.6797,-3.6783,-3.673,-3.6733,-3.6844,-3.6846,-3.6771,-3.6971,-3.6876,-3.6893,-3.6966,-3.6995,-3.7017,-3.7014,-3.6658,0,0,0,0,0,-3.6684,-3.6745,-3.6735,-3.6848,-3.686,-3.6832,-3.6863,-3.683,-3.6848,-3.6856,-3.6852,-3.6872,-3.6924,-3.696,-3.7007,-3.7144,-3.7143,-3.721,-3.7233,-3.7252,-3.7267,-3.7338,-3.7367,-3.7057,-3.7057,-3.7057,0,0,-3.6774,-3.6777,-3.6819,-3.6874,-3.6886,-3.695,-3.684,-3.6913,-3.696,-3.6867,-3.6963,-3.6961,-3.698,-3.71,-3.7153,-3.7104,-3.7352,-3.7268,-3.7284,-3.7289,-3.7355,-3.7384,-3.741,-3.7066,-3.7065,-3.7063,0,0,-3.6971,-3.6981,-3.7075,-3.7089,-3.7108,-3.7089,-3.7112,-3.7116,-3.7111,-3.7207,-3.7138,-3.7193,-3.7284,-3.73,-3.7319,-3.7522,-3.7467,-3.7539,-3.7659,-3.7729,-3.7754,-3.7775,-3.7846,-3.7872,-3.7554,-3.7555,-3.7555,0,-3.7081,-3.7176,-3.713,-3.7208,-3.7234,-3.7153,-3.7248,-3.7263,-3.7297,-3.7316,-3.7262,-3.7374,-3.738,-3.7502,-3.7552,-3.7571,-3.7595,-3.7538,-3.7754,-3.7775,-3.7794,-3.7861,-3.7888,-3.7563,-3.7562,-3.7562,-3.7561,0,-3.7309,-3.7376,-3.745,-3.7485,-3.7519,-3.7605,-3.7572,-3.7611,-3.7575,-3.7561,-3.7659,-3.7664,-3.7711,-3.7737,-3.7703,-3.7854,-3.7824,-3.7763,-3.7666,-3.7833,-3.7895,-3.7921,-3.7576,-3.7573,-3.757,-3.7568,0,0,-3.7589,-3.7597,-3.7625,-3.7639,-3.7654,-3.7705,-3.7787,-3.7832,-3.7867,-3.7892,-3.7959,-3.8038,-3.7981,-3.8004,-3.797,-3.8032,-3.8191,-3.7963,-3.7962,-3.8004,-3.8357,-3.8402,-3.8432,-3.8154,-3.8159,-3.8163,-3.8355,0,-3.7783,-3.7923,-3.7885,-3.8025,-3.8085,-3.8009,-3.808,-3.8097,-3.8086,-3.8135,-3.8122,-3.8178,-3.81,-3.8113,-3.8171,-3.8159,-3.8261,-3.8145,-3.8215,-3.8218,-3.8212,-3.8465,-3.8513,-3.8694,-3.8379,-3.8383,-3.8386,0,-3.8027,-3.8062,-3.8209,-3.8213,-3.8237,-3.8302,-3.8339,-3.8388,-3.8404,-3.8392,-3.8417,-3.8371,-3.845,-3.8354,-3.8462,-3.8384,-3.841,-3.8409,-3.8415,-3.8419,-3.8311,-3.8475,-3.8751,-3.8778,-3.8424,-3.8421,-3.8418,0,-3.8215,-3.83,-3.8398,-3.8412,-3.842,-3.8467,-3.8472,-3.8483,-3.8513,-3.8546,-3.8564,-3.8606,-3.8629,-3.8662,-3.8628,-3.8561,-3.8741,-3.8642,-3.8732,-3.8733,-3.8772,-3.877,-3.9055,-3.8792,-3.8791,-3.8791,-3.879,0,-3.8435,-3.8527,-3.8482,-3.8543,-3.8643,-3.8598,-3.8699,-3.8695,-3.8705,-3.8763,-3.87,-3.8755,-3.8707,-3.8758,-3.8731,-3.8824,-3.8835,-3.8826,-3.8818,-3.8831,-3.8833,-3.8847,-3.8833,-3.8798,-3.8796,-3.8795,-3.8794,0,-3.8661,-3.8635,-3.8737,-3.8736,-3.8738,-3.8812,-3.881,-3.8865,-3.885,-3.8923,-3.8938,-3.8913,-3.897,-3.8939,-3.8997,-3.8979,-3.9099,-3.9074,-3.9094,-3.9087,-3.9178,-3.9169,-3.9481,-3.9519,-3.9233,-3.9236,-3.9238,0,-3.8803,-3.8872,-3.8878,-3.8912,-3.8922,-3.8978,-3.9008,-3.8965,-3.8999,-3.9022,-3.9075,-3.9125,-3.9164,-3.9257,-3.9244,-3.9288,-3.9262,-3.9369,-3.9268,-3.9279,-3.9262,-3.9258,-3.9264,-3.9389,-3.9392,-3.9395,-3.9397,0,-3.9056,-3.9039,-3.9085,-3.9127,-3.9164,-3.9194,-3.9219,-3.9251,-3.9208,-3.9249,-3.9306,-3.9336,-3.9395,-3.9446,-3.9483,-3.9487,-3.9435,-3.9429,-3.9452,-3.9466,-3.9473,-3.9469,-3.9147,-3.9422,-3.9419,-3.9417,-3.9416,-3.9415,-3.9243,-3.93,-3.9314,-3.9366,-3.9381,-3.9406,-3.9457,-3.9448,-3.9495,-3.954,-3.9512,-3.9579,-3.9592,-3.9637,-3.9648,-3.9699,-3.9656,-3.9689,-3.9698,-3.9706,-3.9718,-3.9467,-3.9705,-3.9705,-3.9704,-3.9703,-3.9703,0,-3.9491,-3.9496,-3.9545,-3.9582,-3.9624,-3.9572,-3.9596,-3.9634,-3.9694,-3.9711,-3.975,-3.9815,-3.9864,-3.9855,-3.9899,-3.9941,-3.9918,-3.9954,-3.995,-3.9951,-3.9754,-3.973,-3.9972,-3.9972,-3.9972,-3.9972,-3.9972,-3.9972,-3.9625,-3.972,-3.9705,-3.9805,-3.9809,-3.9874,-3.9893,-3.9915,-3.9928,-4.0004,-4.0044,-4.0038,-4.0044,-4.0088,-4.013,-4.0126,-4.0144,-4.0189,-4.0176,-3.9992,-3.9965,-3.994,-3.9916,-4.0194,-4.0194,-4.0368,-4.037,-4.0371]},{"header":{"parameterUnit":"m.s-1","parameterCategory":1,"la1":30.2991,"la2":30.254,"lo1":-89.0895,"lo2":-89.0444,"dy":0.0017,"dx":0.0017,"nx":28,"ny":28,"refTime":"2024-12-04T09:00:00:Z","depth":0,"parameterNumber":3,"parameterNumberName":"V-component_of_WINDS"},"data":[0,0,0,0,0,0,0,0,0,0,0,0,0,0,0,0,0,0,0,0,0,0,0,0,0,0,0,0,0,0,0,0,0,0,0,0,0,0,0,0,0,0,0,0,0,0,0,0,0,0,0,0,0,0,0,0,0,0,-1.7726,-1.7727,0,-1.7775,-1.7775,-1.7776,-1.7779,-1.7778,-1.7778,-1.7777,-1.7825,-1.7827,-1.7828,0,0,0,0,0,0,0,0,0,0,0,0,0,-1.7633,-1.7635,-1.7726,-1.7727,-1.7728,-1.7775,-1.7776,-1.7776,-1.7779,-1.7778,-1.7778,-1.7777,-1.7824,-1.7826,-1.7829,0,0,0,0,0,0,0,0,0,0,0,0,0,-1.7677,-1.7635,-1.7726,-1.7735,-1.7736,-1.7775,-1.7776,-1.7776,-1.7779,-1.7778,-1.7777,-1.7777,-1.7824,-1.7826,-1.7829,-1.7862,0,0,-1.7837,-1.7838,0,0,0,0,0,0,0,0,-1.7674,-1.768,-1.7733,-1.7734,-1.7736,-1.777,-1.776,-1.7805,-1.7779,-1.7763,-1.7777,-1.7776,-1.7807,-1.7811,-1.7822,-1.7864,-1.7866,-1.7837,-1.7839,-1.784,-1.7841,0,0,0,0,0,0,0,-1.7671,-1.7678,-1.7746,-1.7734,-1.7735,-1.7735,-1.774,-1.7769,-1.7789,-1.7764,-1.7764,-1.777,-1.7808,-1.7819,-1.7823,-1.7867,-1.7837,-1.784,-1.7841,-1.7842,-1.7936,-1.7937,0,0,0,0,0,0,-1.7667,-1.7676,-1.7744,-1.7747,-1.7702,-1.7737,-1.7743,-1.776,-1.7789,-1.7792,-1.7771,-1.777,-1.7815,-1.782,-1.7825,-1.7864,-1.784,-1.7842,-1.7844,-1.7935,-1.7936,-1.7937,0,0,0,0,0,0,-1.7665,-1.7673,-1.7742,-1.7711,-1.772,-1.774,-1.7758,-1.7761,-1.7773,-1.7794,-1.7797,-1.7779,-1.7815,-1.7821,-1.7852,-1.7866,-1.7844,-1.7846,-1.7934,-1.7936,-1.7937,-1.7943,0,0,0,0,0,0,-1.7662,-1.7672,-1.7686,-1.7712,-1.7722,-1.777,-1.7759,-1.7763,-1.7778,-1.7777,-1.7803,-1.7806,-1.7815,-1.7848,-1.7855,-1.7869,-1.7848,-1.7933,-1.7935,-1.7936,-1.7942,-1.7945,-1.7947,0,0,0,0,0,-1.7659,-1.7686,-1.7686,-1.7695,-1.7739,-1.777,-1.7776,-1.7786,-1.7779,-1.7792,-1.7805,-1.7805,-1.7863,-1.7851,-1.7859,-1.7874,-1.7932,-1.7934,-1.7936,-1.7941,-1.7944,-1.7947,0,0,0,0,0,0,-1.766,-1.7689,-1.769,-1.7727,-1.7746,-1.7771,-1.7788,-1.779,-1.7811,-1.781,-1.7821,-1.7826,-1.7857,-1.7869,-1.7855,-1.7906,-1.7897,-1.79,-1.7898,-1.7901,-1.7903,-1.7899,-1.785,0,0,0,0,0,-1.7665,-1.7689,-1.7712,-1.7742,-1.7751,-1.7768,-1.7782,-1.7788,-1.7808,-1.7816,-1.7832,-1.7851,-1.7873,-1.7888,-1.791,-1.7944,-1.7948,-1.7958,-1.796,-1.7962,-1.7965,-1.7982,-1.7986,-1.7944,-1.7944,-1.7944,0,0,-1.7674,-1.7693,-1.7707,-1.7742,-1.7758,-1.7781,-1.7775,-1.78,-1.7817,-1.782,-1.785,-1.7862,-1.7884,-1.7916,-1.7931,-1.7927,-1.7977,-1.7965,-1.7966,-1.7968,-1.7984,-1.7988,-1.7992,-1.7945,-1.7945,-1.7945,0,0,-1.7703,-1.7721,-1.7746,-1.7762,-1.7786,-1.7797,-1.7803,-1.7827,-1.7836,-1.7866,-1.7869,-1.7888,-1.7927,-1.7942,-1.7955,-1.7988,-1.7989,-1.7995,-1.8008,-1.8025,-1.8028,-1.8031,-1.8041,-1.8045,-1.7998,-1.7998,-1.7998,0,-1.7712,-1.7748,-1.7759,-1.7784,-1.7799,-1.7803,-1.7828,-1.7843,-1.7872,-1.7882,-1.7877,-1.7925,-1.794,-1.7975,-1.7983,-1.7994,-1.8,-1.7992,-1.8027,-1.803,-1.8033,-1.8043,-1.8047,-1.7999,-1.7999,-1.7999,-1.7999,0,-1.7756,-1.7781,-1.7799,-1.7828,-1.7844,-1.7869,-1.7883,-1.7898,-1.7903,-1.7913,-1.7944,-1.7962,-1.7987,-1.7996,-1.8001,-1.8031,-1.8027,-1.8025,-1.8015,-1.8037,-1.8046,-1.8051,-1.7999,-1.7999,-1.7999,-1.7999,0,0,-1.7788,-1.7822,-1.7828,-1.784,-1.7867,-1.7886,-1.791,-1.7935,-1.7947,-1.7967,-1.7987,-1.8019,-1.8016,-1.8031,-1.8037,-1.8052,-1.8075,-1.8047,-1.8047,-1.805,-1.8108,-1.8109,-1.8114,-1.8076,-1.8077,-1.8077,-1.8106,0,-1.7819,-1.7863,-1.7873,-1.7911,-1.7933,-1.7937,-1.7958,-1.7975,-1.7986,-1.8005,-1.8016,-1.8039,-1.8034,-1.8042,-1.8057,-1.8069,-1.8087,-1.8067,-1.8093,-1.8094,-1.8086,-1.8119,-1.8121,-1.8147,-1.811,-1.811,-1.8111,0,-1.7861,-1.7882,-1.7922,-1.7944,-1.7953,-1.7972,-1.7995,-1.8014,-1.8034,-1.804,-1.8056,-1.806,-1.8084,-1.8074,-1.8107,-1.8093,-1.8104,-1.8112,-1.8113,-1.8115,-1.8103,-1.812,-1.8156,-1.8159,-1.8117,-1.8117,-1.8116,0,-1.7878,-1.7916,-1.7944,-1.7955,-1.7982,-1.7995,-1.8007,-1.8026,-1.8039,-1.8059,-1.8068,-1.809,-1.8102,-1.8118,-1.8128,-1.812,-1.8159,-1.815,-1.8164,-1.8164,-1.8172,-1.8171,-1.8208,-1.8181,-1.8181,-1.818,-1.818,0,-1.791,-1.7934,-1.7952,-1.797,-1.7996,-1.8007,-1.8032,-1.8044,-1.806,-1.8079,-1.8084,-1.8101,-1.8113,-1.8132,-1.814,-1.8165,-1.817,-1.8175,-1.8177,-1.8174,-1.8173,-1.8181,-1.8179,-1.8182,-1.8181,-1.8181,-1.8181,0,-1.7934,-1.7947,-1.7978,-1.8001,-1.8007,-1.8025,-1.8044,-1.806,-1.8071,-1.8094,-1.81,-1.8116,-1.8138,-1.815,-1.8177,-1.8183,-1.821,-1.8211,-1.8203,-1.8204,-1.8216,-1.8215,-1.8258,-1.8264,-1.8234,-1.8235,-1.8235,0,-1.7953,-1.7972,-1.7996,-1.8009,-1.8021,-1.8042,-1.8056,-1.8067,-1.8082,-1.8105,-1.8118,-1.814,-1.8159,-1.8193,-1.8207,-1.8228,-1.8228,-1.8242,-1.8231,-1.8228,-1.8227,-1.8225,-1.8226,-1.8244,-1.8244,-1.8244,-1.8245,0,-1.7986,-1.7991,-1.8012,-1.8034,-1.8051,-1.8069,-1.8086,-1.8096,-1.811,-1.8126,-1.8148,-1.8163,-1.8191,-1.8212,-1.8234,-1.8245,-1.8246,-1.8248,-1.8252,-1.8249,-1.8243,-1.8245,-1.8207,-1.8247,-1.8246,-1.8246,-1.8246,-1.8246,-1.8007,-1.8023,-1.8042,-1.8064,-1.8079,-1.8095,-1.8111,-1.8123,-1.8143,-1.8166,-1.8172,-1.8195,-1.8213,-1.8242,-1.8254,-1.8271,-1.8269,-1.8275,-1.8276,-1.8277,-1.8277,-1.8241,-1.8276,-1.8276,-1.8275,-1.8275,-1.8275,0,-1.8039,-1.8051,-1.8072,-1.8096,-1.8113,-1.8114,-1.8133,-1.8147,-1.8168,-1.8185,-1.8203,-1.8228,-1.8249,-1.8263,-1.8284,-1.8295,-1.8297,-1.83,-1.8299,-1.8301,-1.8279,-1.8273,-1.8299,-1.8299,-1.8299,-1.8299,-1.8299,-1.8299,-1.8057,-1.8084,-1.8091,-1.8124,-1.8136,-1.816,-1.8171,-1.8185,-1.8198,-1.8226,-1.8244,-1.8253,-1.8269,-1.8291,-1.8309,-1.8313,-1.832,-1.8323,-1.8327,-1.8306,-1.8303,-1.8301,-1.8295,-1.8325,-1.8325,-1.8347,-1.8348,-1.8348]}]]